TimeEDT,TemperatureF,Dew PointF,Humidity,Sea Level PressureIn,VisibilityMPH,Wind Direction,Wind SpeedMPH,Gust SpeedMPH,PrecipitationIn,Events,Conditions,WindDirDegrees,DateUTC
12:15 AM,55.4,51.8,88,30.24,10.0,Calm,Calm,-,N/A,,Unknown,0,2013-10-30 04:15:00
12:35 AM,55.4,51.8,88,30.23,10.0,East,8.1,-,N/A,,Unknown,100,2013-10-30 04:35:00
12:55 AM,55.4,51.8,88,30.22,10.0,Calm,Calm,-,N/A,,Unknown,0,2013-10-30 04:55:00
1:15 AM,57.2,51.8,82,30.23,10.0,Calm,Calm,-,N/A,,Unknown,0,2013-10-30 05:15:00
1:35 AM,55.4,51.8,88,30.23,10.0,Calm,Calm,-,N/A,,Unknown,0,2013-10-30 05:35:00
1:55 AM,55.4,53.6,94,30.23,5.0,Calm,Calm,-,N/A,,Unknown,0,2013-10-30 05:55:00
2:15 AM,55.4,53.6,94,30.23,7.0,Calm,Calm,-,N/A,,Unknown,0,2013-10-30 06:15:00
2:35 AM,53.6,53.6,100,30.22,0.8,NE,3.5,-,N/A,,Unknown,40,2013-10-30 06:35:00
2:55 AM,53.6,53.6,100,30.22,0.5,Calm,Calm,-,N/A,,Unknown,0,2013-10-30 06:55:00
3:15 AM,55.4,53.6,94,30.21,7.0,East,3.5,-,N/A,,Unknown,80,2013-10-30 07:15:00
3:35 AM,55.4,53.6,94,30.21,1.0,East,3.5,-,N/A,,Unknown,80,2013-10-30 07:35:00
3:55 AM,55.4,55.4,100,30.21,7.0,NE,3.5,-,N/A,,Unknown,50,2013-10-30 07:55:00
4:15 AM,55.4,53.6,94,30.21,2.5,Calm,Calm,-,N/A,,Unknown,0,2013-10-30 08:15:00
4:35 AM,55.4,53.6,94,30.21,4.0,East,3.5,-,N/A,,Unknown,80,2013-10-30 08:35:00
4:55 AM,55.4,53.6,94,30.21,1.0,Calm,Calm,-,N/A,,Unknown,0,2013-10-30 08:55:00
5:15 AM,55.4,53.6,94,30.21,3.0,Calm,Calm,-,N/A,,Unknown,0,2013-10-30 09:15:00
5:35 AM,55.4,53.6,94,30.22,4.0,Calm,Calm,-,N/A,,Unknown,0,2013-10-30 09:35:00
5:55 AM,55.4,53.6,94,30.22,4.0,Calm,Calm,-,N/A,,Unknown,0,2013-10-30 09:55:00
6:15 AM,55.4,53.6,94,30.23,2.0,Calm,Calm,-,N/A,,Unknown,0,2013-10-30 10:15:00
6:35 AM,55.4,53.6,94,30.23,4.0,East,8.1,-,N/A,,Unknown,100,2013-10-30 10:35:00
6:55 AM,55.4,53.6,94,30.23,0.2,East,8.1,-,N/A,,Unknown,100,2013-10-30 10:55:00
7:15 AM,55.4,55.4,100,30.24,4.0,Calm,Calm,-,N/A,,Unknown,0,2013-10-30 11:15:00
7:35 AM,55.4,55.4,100,30.24,2.5,East,9.2,-,N/A,,Unknown,100,2013-10-30 11:35:00
7:55 AM,55.4,53.6,94,30.24,2.0,Calm,Calm,-,N/A,,Unknown,0,2013-10-30 11:55:00
8:15 AM,55.4,53.6,94,30.25,0.5,Calm,Calm,-,N/A,,Unknown,0,2013-10-30 12:15:00
8:35 AM,55.4,55.4,100,30.25,2.5,Calm,Calm,-,N/A,,Unknown,0,2013-10-30 12:35:00
8:55 AM,55.4,55.4,100,30.26,1.0,Calm,Calm,-,N/A,,Unknown,0,2013-10-30 12:55:00
9:15 AM,57.2,55.4,94,30.26,1.0,Calm,Calm,-,N/A,,Unknown,0,2013-10-30 13:15:00
9:35 AM,59.0,57.2,94,30.27,7.0,Calm,Calm,-,N/A,,Unknown,0,2013-10-30 13:35:00
9:55 AM,59.0,57.2,94,30.27,5.0,Calm,Calm,-,N/A,,Unknown,0,2013-10-30 13:55:00
10:15 AM,60.8,57.2,88,30.27,10.0,Calm,Calm,-,N/A,,Unknown,0,2013-10-30 14:15:00
10:35 AM,62.6,57.2,82,30.27,10.0,Calm,Calm,-,N/A,,Unknown,0,2013-10-30 14:35:00
10:55 AM,64.4,57.2,77,30.27,10.0,Calm,Calm,-,N/A,,Unknown,0,2013-10-30 14:55:00
11:15 AM,64.4,55.4,73,30.26,10.0,WSW,3.5,-,N/A,,Unknown,250,2013-10-30 15:15:00
11:35 AM,66.2,57.2,73,30.26,10.0,WNW,4.6,-,N/A,,Unknown,300,2013-10-30 15:35:00
11:55 AM,64.4,57.2,77,30.26,10.0,West,5.8,-,N/A,,Unknown,270,2013-10-30 15:55:00
12:15 PM,64.4,57.2,77,30.25,10.0,North,5.8,-,N/A,,Unknown,350,2013-10-30 16:15:00
12:35 PM,66.2,59.0,78,30.25,10.0,WNW,5.8,-,N/A,,Unknown,290,2013-10-30 16:35:00
1:15 PM,66.2,59.0,78,30.23,10.0,Calm,Calm,-,N/A,,Unknown,0,2013-10-30 17:15:00
6:15 PM,69.8,53.6,56,30.16,10.0,SSW,3.5,-,N/A,,Unknown,210,2013-10-30 22:15:00
6:35 PM,69.8,53.6,56,30.16,10.0,Calm,Calm,-,N/A,,Scattered Clouds,0,2013-10-30 22:35:00
6:55 PM,68.0,55.4,64,30.16,10.0,Calm,Calm,-,N/A,,Mostly Cloudy,0,2013-10-30 22:55:00
7:15 PM,66.2,55.4,68,30.16,10.0,Calm,Calm,-,N/A,,Mostly Cloudy,0,2013-10-30 23:15:00
8:55 PM,60.8,55.4,82,30.18,10.0,Calm,Calm,-,N/A,,Mostly Cloudy,0,2013-10-31 00:55:00
9:15 PM,59.0,55.4,88,30.18,10.0,Calm,Calm,-,N/A,,Scattered Clouds,0,2013-10-31 01:15:00
9:35 PM,59.0,55.4,88,30.17,10.0,Calm,Calm,-,N/A,,Clear,0,2013-10-31 01:35:00
9:55 PM,59.0,55.4,88,30.17,10.0,Calm,Calm,-,N/A,,Scattered Clouds,0,2013-10-31 01:55:00
10:15 PM,59.0,55.4,88,30.16,10.0,Calm,Calm,-,N/A,,Scattered Clouds,0,2013-10-31 02:15:00
10:35 PM,59.0,55.4,88,30.16,10.0,Calm,Calm,-,N/A,,Clear,0,2013-10-31 02:35:00
10:55 PM,57.2,55.4,94,30.17,5.0,Calm,Calm,-,N/A,,Clear,0,2013-10-31 02:55:00
11:15 PM,55.4,55.4,100,30.16,5.0,Calm,Calm,-,N/A,,Clear,0,2013-10-31 03:15:00
11:35 PM,55.4,55.4,100,30.16,4.0,Calm,Calm,-,N/A,,Clear,0,2013-10-31 03:35:00
11:55 PM,55.4,55.4,100,30.16,3.0,Calm,Calm,-,N/A,,Clear,0,2013-10-31 03:55:00